McConnell AFB, KS

11:11 PM CDT on April 22, 2018 (GMT -0500)
McConnell Air Force Base

Weather History for KIAB - May, 2013

Change the Weather History Date:

Saturday, May 11, 2013

  Actual Average Record
Temperature  
Mean Temperature 60 °F -  
Max Temperature 67 °F 73 °F 93 °F (2000)
Min Temperature 53 °F 53 °F 41 °F (2008)
Degree Days  
Heating Degree Days 4    
Growing Degree Days 10 (Base 50)    
Moisture  
Dew Point 44 °F    
Average Humidity 60    
Maximum Humidity 100    
Minimum Humidity 31    
Precipitation  
Precipitation 0.00 in - - ()
Sea Level Pressure  
Sea Level Pressure 30.20 in    
Wind  
Wind Speed 9 mph (North)    
Max Wind Speed 25 mph    
Max Gust Speed 34 mph    
Visibility 10 miles    
Events      
Averages and records for this station are not official NWS values.
T = Trace of Precipitation, MM = Missing Value Source: NWS Daily Summary

Daily Weather History Graph

Daily Weather History Graph

Search for Another Location

Airport or City:

Astronomy

May. 11, 2013 Rise Set
Actual Time 6:22 AM CDT 8:28 PM CDT
Civil Twilight 5:53 AM CDT 8:57 PM CDT
Nautical Twilight 5:18 AM CDT 9:33 PM CDT
Astronomical Twilight 4:40 AM CDT 10:11 PM CDT
Moon 7:32 AM CDT (5/11) 10:09 PM CDT (5/11)
Length of Visible Light 15h 03m
Length of Day
14h 05m
Waxing Crescent, 3% of the Moon is Illuminated
May 11
Waxing Crescent
May 17
First Quarter
May 24
Full
May 31
Last Quarter
Jun 8
New

Hourly Weather History & Observations

Time (CDT) Temp. Dew Point Humidity Pressure Visibility Wind Dir Wind Speed Gust Speed Precip Events Conditions
12:58 AM 56.1 °F 53.1 °F 89% 30.12 in 10.0 mi SW 2.3 mph - N/A   Clear
1:58 AM 54.1 °F 53.4 °F 97% 30.13 in 10.0 mi WSW 1.2 mph - N/A   Clear
2:58 AM 54.0 °F 53.8 °F 99% 30.12 in 10.0 mi SW 2.3 mph - N/A   Clear
3:58 AM 54.5 °F 52.9 °F 94% 30.12 in 10.0 mi West 3.5 mph - N/A   Clear
4:58 AM 54.1 °F 54.1 °F 100% 30.11 in 10.0 mi WNW 5.8 mph - N/A   Clear
5:58 AM 54.0 °F 53.8 °F 99% 30.12 in 10.0 mi West 4.6 mph - N/A   Clear
6:58 AM 53.2 °F 53.2 °F 100% 30.12 in 10.0 mi WSW 4.6 mph - N/A   Clear
7:58 AM 57.0 °F 54.9 °F 92% 30.14 in 10.0 mi Calm Calm - N/A   Clear
8:58 AM 60.3 °F 55.6 °F 85% 30.17 in 10.0 mi NNE 16.1 mph - N/A   Clear
9:58 AM 61.3 °F 52.0 °F 71% 30.19 in 10.0 mi NE 24.2 mph 32.2 mph N/A   Clear
10:58 AM 64.0 °F 47.3 °F 54% 30.22 in 10.0 mi NE 23.0 mph 33.4 mph N/A   Clear
11:58 AM 64.9 °F 42.4 °F 44% 30.24 in 10.0 mi NE 25.3 mph 34.5 mph N/A   Clear
12:58 PM 66.0 °F 38.5 °F 36% 30.25 in 10.0 mi NE 23.0 mph 32.2 mph N/A   Clear
1:58 PM 67.3 °F 38.3 °F 35% 30.25 in 10.0 mi NNE 21.9 mph 25.3 mph N/A   Clear
2:58 PM 66.6 °F 37.8 °F 35% 30.26 in 10.0 mi NE 18.4 mph 25.3 mph N/A   Clear
3:45 PM 68.0 °F 37.4 °F 33% 30.25 in 10.0 mi North 18.4 mph 27.6 mph N/A   Clear
3:58 PM 67.1 °F 37.8 °F 34% 30.25 in 10.0 mi NNE 17.3 mph - N/A   Clear
4:58 PM 67.5 °F 37.2 °F 33% 30.24 in 10.0 mi North 16.1 mph 23.0 mph N/A   Clear
5:58 PM 67.3 °F 37.9 °F 34% 30.23 in 10.0 mi North 18.4 mph - N/A   Clear
6:58 PM 65.7 °F 34.3 °F 31% 30.23 in 10.0 mi NNE 17.3 mph 21.9 mph N/A   Clear
7:58 PM 62.4 °F 32.0 °F 32% 30.24 in 10.0 mi NNE 13.8 mph - N/A   Clear
8:58 PM 57.4 °F 34.2 °F 42% 30.25 in 10.0 mi NNE 4.6 mph - N/A   Clear
9:58 PM 58.6 °F 32.2 °F 37% 30.27 in 10.0 mi NNE 3.5 mph - N/A   Clear
10:58 PM 56.7 °F 35.1 °F 44% 30.28 in 10.0 mi NNE 3.5 mph - N/A   Clear
11:58 PM 56.3 °F 34.9 °F 45% 30.28 in 10.0 mi Calm Calm - N/A   Clear